User: anonymous   Login
Location: Vancouver
(49.2500°N, 123.1330°W)
Time: 04:50:14
(UTC-07:00)
Language:

SO-67 - Orbit

View from above orbital plane
View from above orbital plane
View from above satellite
View from above satellite

Ground track
Ground track

The orbit data is extracted from the following two-line orbital elements,

1 35870U 09049F   15213.12044256  .00006416  00000-0  14876-3 0  9997
2 35870 097.1348 228.5048 0003267 074.4391 359.5224 15.42742597327044
Epoch (UTC): 01 August 2015 02:53:26
Eccentricity: 0.0003267
inclination: 97.1348°
perigee height: 436 km
apogee height: 440 km
right ascension of ascending node: 228.5048°
argument of perigee: 74.4391°
revolutions per day: 15.42742597
mean anomaly at epoch: 359.5224°
orbit number at epoch: 32704

The dashed part of the orbit path shows where the satellite is in the earth's shadow,  

DLR